Location: El Limón
(10.3059°N, 67.6321°W)
Time: 05:57:59
(UTC+00:00)

Atlas Centaur 2 - Visible Passes

Search period start: 13 July 2024 00:00
Search period end: 23 July 2024 00:00
Orbit: 458 x 1276 km, 30.4° (Epoch: 12 July)

Date Brightness Start Highest point End Pass type
(mag) Time Alt. Az. Time Alt. Az. Time Alt. Az.
13 Jul 5.0 06:29:41 16° E 06:29:41 16° E 06:31:11 10° E visible
13 Jul 2.9 08:11:53 59° W 08:13:26 73° NNW 08:20:39 10° NE visible
14 Jul 5.1 06:20:35 16° E 06:20:35 16° E 06:21:55 10° ENE visible
14 Jul 3.0 08:02:47 59° WNW 08:03:48 63° NNW 08:11:08 10° NE visible
14 Jul 4.3 09:47:34 10° WNW 09:53:28 23° NNW 09:58:39 10° NNE visible
15 Jul 5.2 06:11:26 15° ENE 06:11:26 15° ENE 06:12:32 10° ENE visible
15 Jul 3.2 07:53:38 54° NW 07:54:11 55° NNW 08:01:35 10° NE visible
15 Jul 4.4 09:38:20 10° WNW 09:44:02 21° NNW 09:49:07 10° NNE visible
16 Jul 5.3 06:02:13 14° ENE 06:02:13 14° ENE 06:03:04 10° ENE visible
16 Jul 3.5 07:44:25 48° NNW 07:44:33 48° NNW 07:51:58 10° NE visible
16 Jul 4.6 09:29:06 10° WNW 09:34:36 20° NNW 09:39:36 10° NNE visible
17 Jul 5.4 05:52:58 12° ENE 05:52:58 12° ENE 05:53:31 10° ENE visible
17 Jul 3.7 07:35:10 42° NNW 07:35:10 42° NNW 07:42:18 10° NE visible
17 Jul 4.7 09:19:53 10° WNW 09:25:12 19° NNW 09:30:05 10° NNE visible
18 Jul 5.5 05:43:40 11° ENE 05:43:40 11° ENE 05:43:54 10° ENE visible
18 Jul 3.9 07:25:52 37° NNW 07:25:52 37° NNW 07:32:37 10° NE visible
18 Jul 4.8 09:10:40 10° NW 09:15:48 18° NNW 09:20:34 10° NNE visible
19 Jul 4.2 07:16:32 33° NNW 07:16:32 33° NNW 07:22:53 10° NE visible
19 Jul 4.9 09:01:23 10° NW 09:06:25 17° N 09:11:07 10° NNE visible
20 Jul 4.4 07:07:10 29° N 07:07:10 29° N 07:13:08 10° NE visible
20 Jul 5.0 08:52:05 10° NW 08:57:01 17° N 09:01:40 10° NNE visible
21 Jul 4.5 06:57:49 26° N 06:57:49 26° N 07:03:21 10° NE visible
21 Jul 5.0 08:42:44 10° NW 08:47:37 17° N 08:52:17 10° NNE visible
22 Jul 4.7 06:48:27 23° N 06:48:27 23° N 06:53:33 10° NE visible
22 Jul 5.1 08:33:19 10° NW 08:38:13 17° N 08:42:57 10° NE visible
